Year,Month,Day,Hour,Minute,Value (Times are PST for barometer in hPa)
2015,12,10,00,00,995.56
2015,12,10,00,01,995.63
2015,12,10,00,02,995.60
2015,12,10,00,03,995.56
2015,12,10,00,04,995.47
2015,12,10,00,05,995.40
2015,12,10,00,06,995.29
2015,12,10,00,07,995.16
2015,12,10,00,08,995.12
2015,12,10,00,09,995.12
2015,12,10,00,10,995.06
2015,12,10,00,11,994.98
2015,12,10,00,12,994.85
2015,12,10,00,13,994.79
2015,12,10,00,14,994.72
2015,12,10,00,15,994.58
2015,12,10,00,16,994.58
2015,12,10,00,17,994.52
2015,12,10,00,18,994.41
2015,12,10,00,19,994.24
2015,12,10,00,20,994.21
2015,12,10,00,21,994.24
2015,12,10,00,22,994.11
2015,12,10,00,23,994.11
2015,12,10,00,24,994.07
2015,12,10,00,25,993.91
2015,12,10,00,26,993.80
2015,12,10,00,27,993.74
2015,12,10,00,28,993.74
2015,12,10,00,29,993.74
2015,12,10,00,30,993.67
2015,12,10,00,31,993.53
2015,12,10,00,32,993.40
2015,12,10,00,33,993.30
2015,12,10,00,34,993.16
2015,12,10,00,35,993.13
2015,12,10,00,36,993.16
2015,12,10,00,37,993.16
2015,12,10,00,38,993.06
2015,12,10,00,39,992.89
2015,12,10,00,40,992.85
2015,12,10,00,41,992.72
2015,12,10,00,42,992.72
2015,12,10,00,43,992.62
2015,12,10,00,44,992.58
2015,12,10,00,45,992.48
2015,12,10,00,46,992.31
2015,12,10,00,47,992.35
2015,12,10,00,48,992.25
2015,12,10,00,49,992.21
2015,12,10,00,50,992.07
2015,12,10,00,51,991.94
2015,12,10,00,52,991.86
2015,12,10,00,53,991.74
2015,12,10,00,54,991.70
2015,12,10,00,55,991.67
2015,12,10,00,56,991.53
2015,12,10,00,57,991.53
2015,12,10,00,58,991.57
2015,12,10,00,59,991.40
2015,12,10,01,00,991.40
2015,12,10,01,01,991.30
2015,12,10,01,02,991.22
2015,12,10,01,03,991.13
2015,12,10,01,04,991.09
2015,12,10,01,05,990.99
2015,12,10,01,06,990.96
2015,12,10,01,07,990.89
2015,12,10,01,08,990.86
2015,12,10,01,09,990.82
2015,12,10,01,10,990.86
2015,12,10,01,11,990.86
2015,12,10,01,12,990.79
2015,12,10,01,13,990.76
2015,12,10,01,14,990.72
2015,12,10,01,15,990.76
2015,12,10,01,16,990.69
2015,12,10,01,17,990.69
2015,12,10,01,18,990.65
2015,12,10,01,19,990.62
2015,12,10,01,20,990.64
2015,12,10,01,21,990.52
2015,12,10,01,22,990.52
2015,12,10,01,23,990.45
2015,12,10,01,24,990.35
2015,12,10,01,25,990.25
2015,12,10,01,26,990.21
2015,12,10,01,27,990.11
2015,12,10,01,28,989.98
2015,12,10,01,29,989.84
2015,12,10,01,30,989.77
2015,12,10,01,31,989.64
2015,12,10,01,32,989.57
2015,12,10,01,33,989.57
2015,12,10,01,34,989.57
2015,12,10,01,35,989.57
2015,12,10,01,36,989.57
2015,12,10,01,37,989.64
2015,12,10,01,38,989.64
2015,12,10,01,39,989.71
2015,12,10,01,40,989.74
2015,12,10,01,41,989.67
2015,12,10,01,42,989.67
2015,12,10,01,43,989.60
2015,12,10,01,44,989.50
2015,12,10,01,45,989.59
2015,12,10,01,46,989.37
2015,12,10,01,47,989.37
2015,12,10,01,48,989.30
2015,12,10,01,49,989.20
2015,12,10,01,50,989.16
2015,12,10,01,51,989.00
2015,12,10,01,52,988.93
2015,12,10,01,53,988.83
2015,12,10,01,54,988.69
2015,12,10,01,55,988.52
2015,12,10,01,56,988.32
2015,12,10,01,57,988.10
2015,12,10,01,58,987.98
2015,12,10,01,59,987.95
2015,12,10,02,00,987.95
2015,12,10,02,01,988.00
2015,12,10,02,02,987.95
2015,12,10,02,03,987.91
2015,12,10,02,04,987.97
2015,12,10,02,05,987.88
2015,12,10,02,06,987.95
2015,12,10,02,07,987.95
2015,12,10,02,08,988.01
2015,12,10,02,09,988.08
2015,12,10,02,10,988.18
2015,12,10,02,11,988.22
2015,12,10,02,12,988.25
2015,12,10,02,13,988.25
2015,12,10,02,14,988.25
2015,12,10,02,15,988.25
2015,12,10,02,16,988.18
2015,12,10,02,17,988.22
2015,12,10,02,18,988.15
2015,12,10,02,19,988.15
2015,12,10,02,20,988.11
2015,12,10,02,21,988.11
2015,12,10,02,22,988.05
2015,12,10,02,23,987.98
2015,12,10,02,24,987.98
2015,12,10,02,25,987.84
2015,12,10,02,26,987.81
2015,12,10,02,27,987.74
2015,12,10,02,28,987.74
2015,12,10,02,29,987.71
2015,12,10,02,30,987.74
2015,12,10,02,31,987.74
2015,12,10,02,32,987.71
2015,12,10,02,33,987.67
2015,12,10,02,34,987.57
2015,12,10,02,35,987.57
2015,12,10,02,36,987.54
2015,12,10,02,37,987.47
2015,12,10,02,38,987.44
2015,12,10,02,39,987.37
2015,12,10,02,40,987.44
2015,12,10,02,41,987.40
2015,12,10,02,42,987.47
2015,12,10,02,43,987.51
2015,12,10,02,44,987.54
2015,12,10,02,45,987.54
2015,12,10,02,46,987.61
2015,12,10,02,47,987.64
2015,12,10,02,48,987.74
2015,12,10,02,49,987.81
2015,12,10,02,50,987.78
2015,12,10,02,51,987.88
2015,12,10,02,52,987.88
2015,12,10,02,53,987.95
2015,12,10,02,54,987.98
2015,12,10,02,55,987.98
2015,12,10,02,56,987.95
2015,12,10,02,57,987.81
2015,12,10,02,58,987.81
2015,12,10,02,59,987.71
2015,12,10,03,00,987.67
2015,12,10,03,01,987.67
2015,12,10,03,02,987.54
2015,12,10,03,03,987.54
2015,12,10,03,04,987.57
2015,12,10,03,05,987.51
2015,12,10,03,06,987.47
2015,12,10,03,07,987.40
2015,12,10,03,08,987.37
2015,12,10,03,09,987.37
2015,12,10,03,10,987.37
2015,12,10,03,11,987.30
2015,12,10,03,12,987.27
2015,12,10,03,13,987.20
2015,12,10,03,14,987.13
2015,12,10,03,15,986.96
2015,12,10,03,16,986.96
2015,12,10,03,17,986.92
2015,12,10,03,18,986.76
2015,12,10,03,19,986.69
2015,12,10,03,20,986.55
2015,12,10,03,21,986.46
2015,12,10,03,22,986.35
2015,12,10,03,23,986.35
2015,12,10,03,24,986.35
2015,12,10,03,25,986.29
2015,12,10,03,26,986.29
2015,12,10,03,27,986.34
2015,12,10,03,28,986.22
2015,12,10,03,29,986.25
2015,12,10,03,30,986.22
2015,12,10,03,31,986.25
2015,12,10,03,32,986.22
2015,12,10,03,33,986.29
2015,12,10,03,34,986.35
2015,12,10,03,35,986.42
2015,12,10,03,36,986.32
2015,12,10,03,37,986.46
2015,12,10,03,38,986.46
2015,12,10,03,39,986.42
2015,12,10,03,40,986.46
2015,12,10,03,41,986.42
2015,12,10,03,42,986.42
2015,12,10,03,43,986.49
2015,12,10,03,44,986.46
2015,12,10,03,45,986.39
2015,12,10,03,46,986.42
2015,12,10,03,47,986.39
2015,12,10,03,48,986.42
2015,12,10,03,49,986.46
2015,12,10,03,50,986.46
2015,12,10,03,51,986.46
2015,12,10,03,52,986.46
2015,12,10,03,53,986.42
2015,12,10,03,54,986.42
2015,12,10,03,55,986.46
2015,12,10,03,56,986.42
2015,12,10,03,57,986.32
2015,12,10,03,58,986.25
2015,12,10,03,59,986.15
2015,12,10,04,00,986.12
2015,12,10,04,01,986.12
2015,12,10,04,02,985.98
2015,12,10,04,03,985.84
2015,12,10,04,04,985.64
2015,12,10,04,05,985.54
2015,12,10,04,06,985.34
2015,12,10,04,07,985.27
2015,12,10,04,08,985.24
2015,12,10,04,09,985.34
2015,12,10,04,10,985.27
2015,12,10,04,11,985.37
2015,12,10,04,12,985.30
2015,12,10,04,13,985.30
2015,12,10,04,14,985.30
2015,12,10,04,15,985.37
2015,12,10,04,16,985.37
2015,12,10,04,17,985.41
2015,12,10,04,18,985.37
2015,12,10,04,19,985.44
2015,12,10,04,20,985.37
2015,12,10,04,21,985.37
2015,12,10,04,22,985.30
2015,12,10,04,23,985.20
2015,12,10,04,24,985.10
2015,12,10,04,25,985.03
2015,12,10,04,26,984.93
2015,12,10,04,27,984.83
2015,12,10,04,28,984.69
2015,12,10,04,29,984.86
2015,12,10,04,30,984.73
2015,12,10,04,31,984.63
2015,12,10,04,32,984.69
2015,12,10,04,33,984.66
2015,12,10,04,34,984.63
2015,12,10,04,35,984.69
2015,12,10,04,36,984.66
2015,12,10,04,37,984.83
2015,12,10,04,38,984.69
2015,12,10,04,39,984.73
2015,12,10,04,40,984.76
2015,12,10,04,41,984.66
2015,12,10,04,42,984.73
2015,12,10,04,43,984.42
2015,12,10,04,44,984.25
2015,12,10,04,45,984.19
2015,12,10,04,46,984.08
2015,12,10,04,47,983.95
2015,12,10,04,48,984.02
2015,12,10,04,49,984.08
2015,12,10,04,50,983.95
2015,12,10,04,51,983.95
2015,12,10,04,52,983.98
2015,12,10,04,53,983.95
2015,12,10,04,54,983.98
2015,12,10,04,55,983.95
2015,12,10,04,56,983.81
2015,12,10,04,57,983.78
2015,12,10,04,58,983.88
2015,12,10,04,59,983.95
2015,12,10,05,00,984.02
2015,12,10,05,01,983.95
2015,12,10,05,02,984.05
2015,12,10,05,03,983.88
2015,12,10,05,04,983.75
2015,12,10,05,05,983.75
2015,12,10,05,06,984.02
2015,12,10,05,07,983.78
2015,12,10,05,08,984.01
2015,12,10,05,09,983.78
2015,12,10,05,10,983.95
2015,12,10,05,11,983.85
2015,12,10,05,12,983.64
2015,12,10,05,13,983.71
2015,12,10,05,14,983.75
2015,12,10,05,15,983.85
2015,12,10,05,16,984.02
2015,12,10,05,17,984.02
2015,12,10,05,18,983.88
2015,12,10,05,19,984.01
2015,12,10,05,20,983.95
2015,12,10,05,21,983.92
2015,12,10,05,22,983.98
2015,12,10,05,23,983.85
2015,12,10,05,24,983.98
2015,12,10,05,25,983.58
2015,12,10,05,26,983.54
2015,12,10,05,27,983.34
2015,12,10,05,28,983.51
2015,12,10,05,29,983.41
2015,12,10,05,30,983.51
2015,12,10,05,31,983.51
2015,12,10,05,32,983.51
2015,12,10,05,33,983.24
2015,12,10,05,34,983.24
2015,12,10,05,35,983.44
2015,12,10,05,36,983.34
2015,12,10,05,37,983.37
2015,12,10,05,38,983.15
2015,12,10,05,39,983.07
2015,12,10,05,40,982.93
2015,12,10,05,41,983.10
2015,12,10,05,42,983.20
2015,12,10,05,43,983.31
2015,12,10,05,44,983.17
2015,12,10,05,45,983.20
2015,12,10,05,46,983.04
2015,12,10,05,47,983.27
2015,12,10,05,48,983.24
2015,12,10,05,49,983.37
2015,12,10,05,50,982.90
2015,12,10,05,51,983.04
2015,12,10,05,52,983.17
2015,12,10,05,53,983.20
2015,12,10,05,54,983.04
2015,12,10,05,55,982.90
2015,12,10,05,56,983.27
2015,12,10,05,57,982.88
2015,12,10,05,58,983.04
2015,12,10,05,59,982.76
2015,12,10,06,00,982.92
2015,12,10,06,01,982.73
2015,12,10,06,02,982.76
2015,12,10,06,03,982.66
2015,12,10,06,04,982.15
2015,12,10,06,05,982.29
2015,12,10,06,06,982.05
2015,12,10,06,07,982.41
2015,12,10,06,08,982.04
2015,12,10,06,09,981.78
2015,12,10,06,10,982.19
2015,12,10,06,11,982.39
2015,12,10,06,12,982.19
2015,12,10,06,13,982.09
2015,12,10,06,14,982.25
2015,12,10,06,15,982.29
2015,12,10,06,16,981.99
2015,12,10,06,17,982.02
2015,12,10,06,18,982.22
2015,12,10,06,19,981.87
2015,12,10,06,20,982.22
2015,12,10,06,21,982.02
2015,12,10,06,22,981.79
2015,12,10,06,23,982.03
2015,12,10,06,24,982.21
2015,12,10,06,25,981.95
2015,12,10,06,26,981.99
2015,12,10,06,27,981.92
2015,12,10,06,28,982.15
2015,12,10,06,29,982.19
2015,12,10,06,30,982.32
2015,12,10,06,31,982.22
2015,12,10,06,32,982.32
2015,12,10,06,33,982.12
2015,12,10,06,34,982.26
2015,12,10,06,35,982.26
2015,12,10,06,36,982.19
2015,12,10,06,37,982.15
2015,12,10,06,38,982.36
2015,12,10,06,39,982.32
2015,12,10,06,40,982.22
2015,12,10,06,41,982.05
2015,12,10,06,42,982.15
2015,12,10,06,43,982.03
2015,12,10,06,44,982.05
2015,12,10,06,45,982.09
2015,12,10,06,46,981.92
2015,12,10,06,47,981.85
2015,12,10,06,48,981.85
2015,12,10,06,49,981.74
2015,12,10,06,50,981.55
2015,12,10,06,51,981.51
2015,12,10,06,52,981.66
2015,12,10,06,53,981.24
2015,12,10,06,54,981.24
2015,12,10,06,55,981.27
2015,12,10,06,56,981.10
2015,12,10,06,57,981.21
2015,12,10,06,58,981.11
2015,12,10,06,59,981.27
2015,12,10,07,00,981.51
2015,12,10,07,01,981.48
2015,12,10,07,02,981.55
2015,12,10,07,03,981.24
2015,12,10,07,04,981.21
2015,12,10,07,05,981.21
2015,12,10,07,06,981.15
2015,12,10,07,07,981.24
2015,12,10,07,08,981.31
2015,12,10,07,09,981.24
2015,12,10,07,10,981.24
2015,12,10,07,11,981.38
2015,12,10,07,12,981.44
2015,12,10,07,13,981.24
2015,12,10,07,14,981.07
2015,12,10,07,15,981.00
2015,12,10,07,16,980.60
2015,12,10,07,17,981.10
2015,12,10,07,18,980.90
2015,12,10,07,19,980.97
2015,12,10,07,20,980.88
2015,12,10,07,21,980.70
2015,12,10,07,22,980.80
2015,12,10,07,23,980.83
2015,12,10,07,24,981.04
2015,12,10,07,25,981.14
2015,12,10,07,26,980.98
2015,12,10,07,27,980.94
2015,12,10,07,28,981.07
2015,12,10,07,29,981.17
2015,12,10,07,30,981.27
2015,12,10,07,31,981.04
2015,12,10,07,32,981.07
2015,12,10,07,33,981.00
2015,12,10,07,34,981.07
2015,12,10,07,35,980.91
2015,12,10,07,36,980.87
2015,12,10,07,37,980.63
2015,12,10,07,38,980.70
2015,12,10,07,39,980.83
2015,12,10,07,40,980.60
2015,12,10,07,41,980.63
2015,12,10,07,42,980.40
2015,12,10,07,43,980.70
2015,12,10,07,44,980.80
2015,12,10,07,45,980.50
2015,12,10,07,46,980.80
2015,12,10,07,47,980.80
2015,12,10,07,48,980.66
2015,12,10,07,49,980.73
2015,12,10,07,50,980.66
2015,12,10,07,51,980.73
2015,12,10,07,52,980.39
2015,12,10,07,53,980.50
2015,12,10,07,54,980.70
2015,12,10,07,55,980.29
2015,12,10,07,56,980.33
2015,12,10,07,57,980.19
2015,12,10,07,58,980.09
2015,12,10,07,59,980.36
2015,12,10,08,00,980.33
2015,12,10,08,01,980.20
2015,12,10,08,02,980.16
2015,12,10,08,03,980.35
2015,12,10,08,04,980.19
2015,12,10,08,05,980.33
2015,12,10,08,06,980.13
2015,12,10,08,07,980.26
2015,12,10,08,08,980.36
2015,12,10,08,09,980.26
2015,12,10,08,10,980.26
2015,12,10,08,11,980.46
2015,12,10,08,12,980.12
2015,12,10,08,13,980.33
2015,12,10,08,14,980.45
2015,12,10,08,15,980.59
2015,12,10,08,16,980.39
2015,12,10,08,17,980.63
2015,12,10,08,18,980.63
2015,12,10,08,19,980.46
2015,12,10,08,20,980.59
2015,12,10,08,21,980.47
2015,12,10,08,22,980.55
2015,12,10,08,23,980.77
2015,12,10,08,24,980.78
2015,12,10,08,25,980.94
2015,12,10,08,26,980.94
2015,12,10,08,27,980.94
2015,12,10,08,28,980.56
2015,12,10,08,29,981.00
2015,12,10,08,30,980.66
2015,12,10,08,31,980.80
2015,12,10,08,32,980.66
2015,12,10,08,33,980.86
2015,12,10,08,34,980.83
2015,12,10,08,35,980.94
2015,12,10,08,36,980.97
2015,12,10,08,37,980.83
2015,12,10,08,38,980.80
2015,12,10,08,39,980.73
2015,12,10,08,40,980.77
2015,12,10,08,41,980.66
2015,12,10,08,42,980.66
2015,12,10,08,43,980.66
2015,12,10,08,44,980.70
2015,12,10,08,45,980.70
2015,12,10,08,46,980.66
2015,12,10,08,47,980.77
2015,12,10,08,48,980.83
2015,12,10,08,49,980.56
2015,12,10,08,50,980.59
2015,12,10,08,51,980.43
2015,12,10,08,52,980.46
2015,12,10,08,53,980.60
2015,12,10,08,54,980.29
2015,12,10,08,55,980.26
2015,12,10,08,56,980.22
2015,12,10,08,57,980.33
2015,12,10,08,58,980.66
2015,12,10,08,59,980.70
2015,12,10,09,00,980.77
2015,12,10,09,01,980.77
2015,12,10,09,02,980.73
2015,12,10,09,03,980.77
2015,12,10,09,04,980.83
2015,12,10,09,05,980.56
2015,12,10,09,06,980.53
2015,12,10,09,07,980.60
2015,12,10,09,08,980.63
2015,12,10,09,09,980.22
2015,12,10,09,10,980.60
2015,12,10,09,11,980.29
2015,12,10,09,12,980.33
2015,12,10,09,13,980.22
2015,12,10,09,14,980.29
2015,12,10,09,15,980.33
2015,12,10,09,16,980.09
2015,12,10,09,17,980.06
2015,12,10,09,18,980.39
2015,12,10,09,19,980.60
2015,12,10,09,20,980.37
2015,12,10,09,21,980.60
2015,12,10,09,22,980.50
2015,12,10,09,23,980.70
2015,12,10,09,24,980.80
2015,12,10,09,25,980.77
2015,12,10,09,26,980.89
2015,12,10,09,27,980.83
2015,12,10,09,28,980.80
2015,12,10,09,29,980.94
2015,12,10,09,30,980.83
2015,12,10,09,31,980.83
2015,12,10,09,32,980.90
2015,12,10,09,33,980.73
2015,12,10,09,34,980.83
2015,12,10,09,35,980.87
2015,12,10,09,36,980.90
2015,12,10,09,37,980.87
2015,12,10,09,38,981.00
2015,12,10,09,39,980.97
2015,12,10,09,40,980.80
2015,12,10,09,41,980.63
2015,12,10,09,42,980.82
2015,12,10,09,43,980.73
2015,12,10,09,44,980.77
2015,12,10,09,45,980.60
2015,12,10,09,46,980.56
2015,12,10,09,47,980.50
2015,12,10,09,48,980.46
2015,12,10,09,49,980.36
2015,12,10,09,50,980.16
2015,12,10,09,51,980.53
2015,12,10,09,52,980.46
2015,12,10,09,53,980.33
2015,12,10,09,54,980.53
2015,12,10,09,55,980.56
2015,12,10,09,56,980.50
2015,12,10,09,57,980.46
2015,12,10,09,58,980.63
2015,12,10,09,59,980.46
2015,12,10,10,00,980.50
2015,12,10,10,01,980.80
2015,12,10,10,02,980.66
2015,12,10,10,03,980.66
2015,12,10,10,04,980.93
2015,12,10,10,05,980.83
2015,12,10,10,06,980.87
2015,12,10,10,07,980.90
2015,12,10,10,08,980.70
2015,12,10,10,09,980.73
2015,12,10,10,10,980.66
2015,12,10,10,11,980.94
2015,12,10,10,12,980.63
2015,12,10,10,13,980.51
2015,12,10,10,14,981.03
2015,12,10,10,15,980.77
2015,12,10,10,16,980.63
2015,12,10,10,17,980.63
2015,12,10,10,18,980.56
2015,12,10,10,19,980.60
2015,12,10,10,20,980.43
2015,12,10,10,21,980.79
2015,12,10,10,22,980.63
2015,12,10,10,23,980.66
2015,12,10,10,24,980.60
2015,12,10,10,25,980.60
2015,12,10,10,26,980.60
2015,12,10,10,27,980.53
2015,12,10,10,28,980.83
2015,12,10,10,29,980.83
2015,12,10,10,30,980.64
2015,12,10,10,31,980.94
2015,12,10,10,32,981.00
2015,12,10,10,33,980.90
2015,12,10,10,34,980.80
2015,12,10,10,35,980.60
2015,12,10,10,36,980.66
2015,12,10,10,37,980.73
2015,12,10,10,38,980.60
2015,12,10,10,39,980.39
2015,12,10,10,40,980.39
2015,12,10,10,41,980.63
2015,12,10,10,42,980.53
2015,12,10,10,43,980.46
2015,12,10,10,44,980.63
2015,12,10,10,45,980.77
2015,12,10,10,46,980.73
2015,12,10,10,47,980.73
2015,12,10,10,48,981.00
2015,12,10,10,49,980.91
2015,12,10,10,50,981.14
2015,12,10,10,51,981.27
2015,12,10,10,52,981.38
2015,12,10,10,53,981.44
2015,12,10,10,54,981.58
2015,12,10,10,55,981.61
2015,12,10,10,56,981.71
2015,12,10,10,57,981.82
2015,12,10,10,58,981.82
2015,12,10,10,59,981.92
2015,12,10,11,00,981.92
2015,12,10,11,01,981.61
2015,12,10,11,02,981.78
2015,12,10,11,03,981.78
2015,12,10,11,04,981.85
2015,12,10,11,05,981.72
2015,12,10,11,06,981.71
2015,12,10,11,07,981.88
2015,12,10,11,08,981.88
2015,12,10,11,09,981.92
2015,12,10,11,10,982.02
2015,12,10,11,11,981.95
2015,12,10,11,12,981.88
2015,12,10,11,13,981.85
2015,12,10,11,14,981.69
2015,12,10,11,15,981.51
2015,12,10,11,16,981.61
2015,12,10,11,17,981.65
2015,12,10,11,18,981.75
2015,12,10,11,19,981.75
2015,12,10,11,20,981.71
2015,12,10,11,21,981.75
2015,12,10,11,22,981.88
2015,12,10,11,23,982.02
2015,12,10,11,24,982.09
2015,12,10,11,25,982.02
2015,12,10,11,26,982.09
2015,12,10,11,27,982.12
2015,12,10,11,28,982.15
2015,12,10,11,29,982.32
2015,12,10,11,30,982.36
2015,12,10,11,31,982.46
2015,12,10,11,32,982.39
2015,12,10,11,33,982.52
2015,12,10,11,34,982.59
2015,12,10,11,35,982.59
2015,12,10,11,36,982.70
2015,12,10,11,37,982.70
2015,12,10,11,38,982.73
2015,12,10,11,39,982.76
2015,12,10,11,40,982.66
2015,12,10,11,41,982.76
2015,12,10,11,42,982.93
2015,12,10,11,43,982.97
2015,12,10,11,44,983.04
2015,12,10,11,45,983.10
2015,12,10,11,46,983.17
2015,12,10,11,47,983.20
2015,12,10,11,48,983.27
2015,12,10,11,49,983.34
2015,12,10,11,50,983.37
2015,12,10,11,51,983.44
2015,12,10,11,52,983.51
2015,12,10,11,53,983.54
2015,12,10,11,54,983.58
2015,12,10,11,55,983.64
2015,12,10,11,56,983.68
2015,12,10,11,57,983.68
2015,12,10,11,58,983.71
2015,12,10,11,59,983.75
2015,12,10,12,00,983.68
2015,12,10,12,01,983.75
2015,12,10,12,02,983.78
2015,12,10,12,03,983.88
2015,12,10,12,04,983.97
2015,12,10,12,05,983.95
2015,12,10,12,06,983.85
2015,12,10,12,07,983.78
2015,12,10,12,08,983.68
2015,12,10,12,09,983.68
2015,12,10,12,10,983.68
2015,12,10,12,11,983.58
2015,12,10,12,12,983.60
2015,12,10,12,13,983.48
2015,12,10,12,14,983.51
2015,12,10,12,15,983.51
2015,12,10,12,16,983.44
2015,12,10,12,17,983.44
2015,12,10,12,18,983.44
2015,12,10,12,19,983.51
2015,12,10,12,20,983.61
2015,12,10,12,21,983.71
2015,12,10,12,22,983.78
2015,12,10,12,23,983.92
2015,12,10,12,24,983.85
2015,12,10,12,25,983.92
2015,12,10,12,26,983.95
2015,12,10,12,27,983.95
2015,12,10,12,28,984.07
2015,12,10,12,29,984.08
2015,12,10,12,30,984.19
2015,12,10,12,31,984.25
2015,12,10,12,32,984.32
2015,12,10,12,33,984.32
2015,12,10,12,34,984.42
2015,12,10,12,35,984.53
2015,12,10,12,36,984.56
2015,12,10,12,37,984.63
2015,12,10,12,38,984.66
2015,12,10,12,39,984.76
2015,12,10,12,40,984.97
2015,12,10,12,41,985.07
2015,12,10,12,42,985.07
2015,12,10,12,43,985.61
2015,12,10,12,44,985.03
2015,12,10,12,45,984.97
2015,12,10,12,46,984.97
2015,12,10,12,47,984.93
2015,12,10,12,48,985.10
2015,12,10,12,49,985.17
2015,12,10,12,50,985.13
2015,12,10,12,51,985.07
2015,12,10,12,52,984.97
2015,12,10,12,53,985.03
2015,12,10,12,54,985.10
2015,12,10,12,55,985.07
2015,12,10,12,56,985.00
2015,12,10,12,57,985.03
2015,12,10,12,58,985.13
2015,12,10,12,59,985.07
2015,12,10,13,00,985.07
2015,12,10,13,01,985.10
2015,12,10,13,02,985.07
2015,12,10,13,03,985.17
2015,12,10,13,04,985.10
2015,12,10,13,05,985.07
2015,12,10,13,06,985.20
2015,12,10,13,07,985.27
2015,12,10,13,08,985.34
2015,12,10,13,09,985.44
2015,12,10,13,10,985.51
2015,12,10,13,11,985.54
2015,12,10,13,12,985.57
2015,12,10,13,13,985.54
2015,12,10,13,14,985.54
2015,12,10,13,15,985.64
2015,12,10,13,16,985.68
2015,12,10,13,17,985.64
2015,12,10,13,18,985.71
2015,12,10,13,19,985.74
2015,12,10,13,20,985.85
2015,12,10,13,21,985.91
2015,12,10,13,22,985.95
2015,12,10,13,23,986.02
2015,12,10,13,24,986.05
2015,12,10,13,25,986.05
2015,12,10,13,26,986.05
2015,12,10,13,27,986.12
2015,12,10,13,28,986.15
2015,12,10,13,29,986.15
2015,12,10,13,30,986.22
2015,12,10,13,31,986.18
2015,12,10,13,32,986.25
2015,12,10,13,33,986.25
2015,12,10,13,34,986.25
2015,12,10,13,35,986.25
2015,12,10,13,36,986.22
2015,12,10,13,37,986.39
2015,12,10,13,38,986.49
2015,12,10,13,39,986.49
2015,12,10,13,40,986.56
2015,12,10,13,41,986.66
2015,12,10,13,42,986.66
2015,12,10,13,43,986.69
2015,12,10,13,44,986.62
2015,12,10,13,45,986.61
2015,12,10,13,46,986.52
2015,12,10,13,47,986.59
2015,12,10,13,48,986.66
2015,12,10,13,49,986.73
2015,12,10,13,50,986.76
2015,12,10,13,51,986.79
2015,12,10,13,52,986.83
2015,12,10,13,53,986.86
2015,12,10,13,54,986.90
2015,12,10,13,55,986.96
2015,12,10,13,56,987.10
2015,12,10,13,57,987.13
2015,12,10,13,58,987.23
2015,12,10,13,59,987.23
2015,12,10,14,00,987.37
2015,12,10,14,01,987.40
2015,12,10,14,02,987.27
2015,12,10,14,03,987.13
2015,12,10,14,04,987.13
2015,12,10,14,05,987.10
2015,12,10,14,06,987.13
2015,12,10,14,07,987.03
2015,12,10,14,08,987.03
2015,12,10,14,09,987.03
2015,12,10,14,10,987.06
2015,12,10,14,11,987.10
2015,12,10,14,12,987.13
2015,12,10,14,13,987.10
2015,12,10,14,14,987.10
2015,12,10,14,15,987.10
2015,12,10,14,16,987.06
2015,12,10,14,17,987.03
2015,12,10,14,18,987.06
2015,12,10,14,19,987.03
2015,12,10,14,20,987.10
2015,12,10,14,21,987.10
2015,12,10,14,22,987.13
2015,12,10,14,23,987.17
2015,12,10,14,24,987.13
2015,12,10,14,25,987.13
2015,12,10,14,26,987.10
2015,12,10,14,27,986.93
2015,12,10,14,28,987.03
2015,12,10,14,29,987.06
2015,12,10,14,30,987.10
2015,12,10,14,31,987.13
2015,12,10,14,32,987.13
2015,12,10,14,33,987.17
2015,12,10,14,34,987.20
2015,12,10,14,35,987.30
2015,12,10,14,36,987.34
2015,12,10,14,37,987.40
2015,12,10,14,38,987.34
2015,12,10,14,39,987.37
2015,12,10,14,40,987.37
2015,12,10,14,41,987.37
2015,12,10,14,42,987.44
2015,12,10,14,43,987.44
2015,12,10,14,44,987.44
2015,12,10,14,45,987.47
2015,12,10,14,46,987.47
2015,12,10,14,47,987.47
2015,12,10,14,48,987.51
2015,12,10,14,49,987.54
2015,12,10,14,50,987.44
2015,12,10,14,51,987.54
2015,12,10,14,52,987.54
2015,12,10,14,53,987.57
2015,12,10,14,54,987.65
2015,12,10,14,55,987.74
2015,12,10,14,56,987.74
2015,12,10,14,57,987.78
2015,12,10,14,58,987.71
2015,12,10,14,59,987.78
2015,12,10,15,00,987.74
2015,12,10,15,01,987.74
2015,12,10,15,02,987.74
2015,12,10,15,03,987.74
2015,12,10,15,04,987.81
2015,12,10,15,05,987.94
2015,12,10,15,06,988.11
2015,12,10,15,07,988.18
2015,12,10,15,08,988.15
2015,12,10,15,09,988.22
2015,12,10,15,10,988.22
2015,12,10,15,11,988.32
2015,12,10,15,12,988.39
2015,12,10,15,13,988.45
2015,12,10,15,14,988.49
2015,12,10,15,15,988.49
2015,12,10,15,16,988.52
2015,12,10,15,17,988.52
2015,12,10,15,18,988.52
2015,12,10,15,19,988.49
2015,12,10,15,20,988.45
2015,12,10,15,21,988.45
2015,12,10,15,22,988.45
2015,12,10,15,23,988.45
2015,12,10,15,24,988.44
2015,12,10,15,25,988.32
2015,12,10,15,26,988.32
2015,12,10,15,27,988.32
2015,12,10,15,28,988.39
2015,12,10,15,29,988.45
2015,12,10,15,30,988.52
2015,12,10,15,31,988.55
2015,12,10,15,32,988.55
2015,12,10,15,33,988.49
2015,12,10,15,34,988.52
2015,12,10,15,35,988.55
2015,12,10,15,36,988.66
2015,12,10,15,37,988.62
2015,12,10,15,38,988.62
2015,12,10,15,39,988.62
2015,12,10,15,40,988.72
2015,12,10,15,41,988.72
2015,12,10,15,42,988.79
2015,12,10,15,43,988.86
2015,12,10,15,44,988.93
2015,12,10,15,45,989.00
2015,12,10,15,46,989.00
2015,12,10,15,47,989.06
2015,12,10,15,48,989.03
2015,12,10,15,49,989.00
2015,12,10,15,50,989.00
2015,12,10,15,51,989.03
2015,12,10,15,52,989.06
2015,12,10,15,53,989.03
2015,12,10,15,54,989.13
2015,12,10,15,55,989.06
2015,12,10,15,56,989.13
2015,12,10,15,57,989.10
2015,12,10,15,58,989.13
2015,12,10,15,59,989.20
2015,12,10,16,00,989.16
2015,12,10,16,01,989.23
2015,12,10,16,02,989.27
2015,12,10,16,03,989.27
2015,12,10,16,04,989.27
2015,12,10,16,05,989.33
2015,12,10,16,06,989.33
2015,12,10,16,07,989.33
2015,12,10,16,08,989.37
2015,12,10,16,09,989.37
2015,12,10,16,10,989.37
2015,12,10,16,11,989.40
2015,12,10,16,12,989.40
2015,12,10,16,13,989.37
2015,12,10,16,14,989.33
2015,12,10,16,15,989.44
2015,12,10,16,16,989.40
2015,12,10,16,17,989.40
2015,12,10,16,18,989.37
2015,12,10,16,19,989.30
2015,12,10,16,20,989.37
2015,12,10,16,21,989.33
2015,12,10,16,22,989.43
2015,12,10,16,23,989.40
2015,12,10,16,24,989.44
2015,12,10,16,25,989.50
2015,12,10,16,26,989.60
2015,12,10,16,27,989.71
2015,12,10,16,28,989.74
2015,12,10,16,29,989.81
2015,12,10,16,30,989.84
2015,12,10,16,31,989.94
2015,12,10,16,32,989.94
2015,12,10,16,33,989.88
2015,12,10,16,34,989.91
2015,12,10,16,35,989.84
2015,12,10,16,36,990.01